Simultaneous Nadir Overpasses (SNOs) Predictions

Prediction of SNOs between NOAA-19 and METOP-C Satellite Orbit:

Table of predicted SNOs for the next 14.0 days since TLE Epoch: 11/23/2019
Index Date (NOAA-19) Time (NOAA-19) Lat,Lon (NOAA-19) SZA (NOAA-19 ) Date (METOP-C) Time (METOP-C) Lat,Lon (METOP-C) SZA (METOP-C ) Distance(km) Time Diff (sec)
1 12/02/2019 12:04:17 -79.67,-162.38 77.77 12/02/2019 12:05:23 -79.66,-162.34 77.76 1.25 66
2 12/02/2019 12:55:17 79.67, 4.87 102.24 12/02/2019 12:56:04 79.66, 4.98 102.25 2.50 47
3 12/02/2019 13:46:17 -79.65, 172.33 77.77 12/02/2019 13:46:45 -79.65, 172.19 77.77 2.85 28
4 12/02/2019 14:37:17 79.65, -20.42 102.25 12/02/2019 14:37:26 79.65, -20.48 102.24 1.40 9
5 12/02/2019 15:28:18 -79.66, 146.75 77.75 12/02/2019 15:28:07 -79.63, 146.73 77.78 3.02 11
6 12/02/2019 16:19:18 79.66, -46.00 102.26 12/02/2019 16:18:48 79.63, -45.94 102.23 3.13 30
7 12/02/2019 17:10:18 -79.64, 121.45 77.75 12/02/2019 17:09:28 -79.65, 121.54 77.75 2.11 50




NCC Satellite Simultaneous Nadir Overpasses (SNOs) Prediction Service
